[[{"header":{"parameterUnit":"m.s-1","parameterCategory":2,"la1":30.2991,"la2":30.254,"lo1":-89.0895,"lo2":-89.0444,"dy":0.0017,"dx":0.0017,"nx":28,"ny":28,"refTime":"2025-11-23T09:00:00:Z","depth":"0","parameterNumber":2,"parameterNumberName":"U-component_of_CURRENTS"},"data":[0,0,0,0,0,0,0,0,0,0,0,0,0,0,0,0,0,0,0,0,0,0,0,0,0,0,0,0,0,0,0,0,0,0,0,0,0,0,0,0,0,0,0,0,0,0,0,0,0,0,0,0,0,0,0,0,0,0,-0.234,-0.2341,0,-0.2347,-0.2347,-0.2347,-0.2314,-0.2313,-0.2312,-0.2312,-0.2263,-0.2262,-0.2262,0,0,0,0,0,0,0,0,0,0,0,0,0,-0.2289,-0.229,-0.234,-0.2341,-0.2341,-0.2347,-0.2347,-0.2347,-0.2314,-0.2313,-0.2312,-0.2311,-0.2263,-0.2263,-0.2262,0,0,0,0,0,0,0,0,0,0,0,0,0,-0.2303,-0.229,-0.234,-0.2327,-0.2326,-0.2347,-0.2347,-0.2347,-0.2314,-0.2313,-0.2312,-0.2311,-0.2264,-0.2263,-0.2262,-0.2277,0,0,-0.2259,-0.2258,0,0,0,0,0,0,0,0,-0.2302,-0.2304,-0.2329,-0.2328,-0.2327,-0.2331,-0.2311,-0.2322,-0.2314,-0.2316,-0.2311,-0.231,-0.2283,-0.2281,-0.2281,-0.2275,-0.2273,-0.2259,-0.2258,-0.2258,-0.2257,0,0,0,0,0,0,0,-0.2301,-0.2304,-0.234,-0.2329,-0.2328,-0.2318,-0.2318,-0.2313,-0.2302,-0.2315,-0.2314,-0.2319,-0.2282,-0.2282,-0.228,-0.2272,-0.2259,-0.2258,-0.2257,-0.2257,-0.2269,-0.227,0,0,0,0,0,0,-0.2308,-0.2303,-0.234,-0.2341,-0.2315,-0.232,-0.232,-0.2328,-0.2303,-0.23,-0.232,-0.2318,-0.2284,-0.2281,-0.2278,-0.229,-0.2258,-0.2257,-0.2256,-0.2268,-0.2269,-0.227,0,0,0,0,0,0,-0.2307,-0.2311,-0.234,-0.2324,-0.2327,-0.2322,-0.2331,-0.2329,-0.2325,-0.2308,-0.2302,-0.2318,-0.2283,-0.2279,-0.2277,-0.2288,-0.2256,-0.2256,-0.2267,-0.2268,-0.2269,-0.2318,0,0,0,0,0,0,-0.2305,-0.2311,-0.2313,-0.2325,-0.2328,-0.2356,-0.2333,-0.233,-0.2332,-0.2329,-0.2305,-0.23,-0.2282,-0.2279,-0.2276,-0.2286,-0.2255,-0.2266,-0.2268,-0.2269,-0.2315,-0.232,-0.2325,0,0,0,0,0,-0.2303,-0.2315,-0.2313,-0.2317,-0.2333,-0.2357,-0.2358,-0.2349,-0.2333,-0.2339,-0.2324,-0.23,-0.2287,-0.2279,-0.2276,-0.2285,-0.2265,-0.2267,-0.2269,-0.2313,-0.2319,-0.2325,0,0,0,0,0,0,-0.2291,-0.2314,-0.2311,-0.2328,-0.2343,-0.2353,-0.2356,-0.2353,-0.2346,-0.2337,-0.2313,-0.2308,-0.231,-0.2295,-0.2287,-0.2295,-0.2272,-0.2273,-0.2306,-0.2312,-0.2317,-0.2314,-0.2254,0,0,0,0,0,-0.2292,-0.2304,-0.2327,-0.2337,-0.2347,-0.2351,-0.2357,-0.2356,-0.2356,-0.2351,-0.2338,-0.2323,-0.2319,-0.2312,-0.2306,-0.2312,-0.2284,-0.2315,-0.2321,-0.2325,-0.2321,-0.2301,-0.2303,-0.2277,-0.2277,-0.2276,0,0,-0.2288,-0.2302,-0.2307,-0.2334,-0.2341,-0.2365,-0.2351,-0.2366,-0.2379,-0.2348,-0.2352,-0.2341,-0.2325,-0.2332,-0.2331,-0.2318,-0.2318,-0.2328,-0.2331,-0.2325,-0.2303,-0.2305,-0.2308,-0.2278,-0.2278,-0.2277,0,0,-0.2293,-0.2302,-0.2317,-0.2338,-0.236,-0.237,-0.2377,-0.2393,-0.2391,-0.2403,-0.2383,-0.2378,-0.2373,-0.2364,-0.2358,-0.2388,-0.2348,-0.2388,-0.2408,-0.2389,-0.239,-0.2392,-0.2356,-0.2354,-0.2388,-0.2388,-0.2388,0,-0.2284,-0.2309,-0.2324,-0.2351,-0.2367,-0.2375,-0.2399,-0.2409,-0.242,-0.242,-0.2409,-0.2399,-0.2386,-0.239,-0.2402,-0.2398,-0.2375,-0.2386,-0.2394,-0.2395,-0.2395,-0.2359,-0.2356,-0.2391,-0.239,-0.239,-0.239,0,-0.2306,-0.2328,-0.2341,-0.2376,-0.2398,-0.2419,-0.2445,-0.2457,-0.2455,-0.2459,-0.2461,-0.2447,-0.2436,-0.2438,-0.2429,-0.2431,-0.241,-0.2404,-0.2377,-0.2401,-0.2361,-0.2357,-0.2394,-0.2393,-0.2393,-0.2392,0,0,-0.2272,-0.2342,-0.2343,-0.2364,-0.2411,-0.2429,-0.2462,-0.2487,-0.2493,-0.2501,-0.25,-0.2503,-0.2487,-0.248,-0.2467,-0.2454,-0.2439,-0.2434,-0.2432,-0.2395,-0.2384,-0.2288,-0.2273,-0.2436,-0.2435,-0.2435,-0.2353,0,-0.2276,-0.2328,-0.2364,-0.2404,-0.2431,-0.2461,-0.2489,-0.2513,-0.252,-0.2524,-0.2515,-0.2509,-0.2506,-0.2495,-0.2487,-0.2452,-0.243,-0.246,-0.2369,-0.2366,-0.2274,-0.2266,-0.2168,-0.208,-0.2349,-0.2348,-0.2347,0,-0.2276,-0.2312,-0.2357,-0.2416,-0.2429,-0.2454,-0.2486,-0.2514,-0.2534,-0.2538,-0.2539,-0.2528,-0.2518,-0.2504,-0.2458,-0.2478,-0.2434,-0.2403,-0.2399,-0.2287,-0.2261,-0.21,-0.2061,-0.2045,-0.234,-0.2341,-0.2341,0,-0.2229,-0.2301,-0.2332,-0.2354,-0.2426,-0.2442,-0.2472,-0.2506,-0.2519,-0.2537,-0.2534,-0.2532,-0.2508,-0.2478,-0.2419,-0.244,-0.2346,-0.2365,-0.2233,-0.2226,-0.2111,-0.2093,-0.2038,-0.2317,-0.2317,-0.2318,-0.2318,0,-0.2211,-0.2231,-0.2311,-0.2325,-0.2349,-0.2413,-0.2429,-0.2461,-0.2494,-0.2496,-0.2527,-0.2507,-0.25,-0.2448,-0.241,-0.2293,-0.2335,-0.2222,-0.2195,-0.2124,-0.2109,-0.2063,-0.2087,-0.2314,-0.2315,-0.2316,-0.2316,0,-0.2143,-0.2203,-0.2234,-0.2308,-0.2326,-0.2336,-0.2396,-0.2406,-0.2454,-0.2454,-0.2457,-0.2474,-0.2406,-0.237,-0.2297,-0.2252,-0.2118,-0.2112,-0.2019,-0.1981,-0.1851,-0.1881,-0.1781,-0.1735,-0.1965,-0.1962,-0.196,0,-0.2109,-0.2122,-0.2193,-0.2202,-0.2229,-0.2264,-0.2283,-0.2361,-0.2378,-0.2417,-0.2403,-0.236,-0.2283,-0.2145,-0.2064,-0.1953,-0.1975,-0.1811,-0.1834,-0.1811,-0.1826,-0.186,-0.1834,-0.1704,-0.1699,-0.1696,-0.1693,0,-0.2027,-0.2053,-0.2075,-0.2103,-0.2125,-0.2153,-0.2192,-0.2204,-0.2285,-0.228,-0.2242,-0.2181,-0.2067,-0.1898,-0.1774,-0.1715,-0.1764,-0.1732,-0.1738,-0.163,-0.1634,-0.1587,-0.1793,-0.1661,-0.1664,-0.1667,-0.1668,-0.167,-0.1941,-0.1934,-0.1965,-0.1974,-0.2003,-0.2011,-0.199,-0.2038,-0.2027,-0.1994,-0.203,-0.1888,-0.1786,-0.1586,-0.1527,-0.1415,-0.1502,-0.1388,-0.143,-0.1468,-0.1413,-0.1534,-0.1356,-0.1357,-0.1359,-0.136,-0.1361,0,-0.182,-0.1826,-0.1835,-0.1842,-0.1817,-0.1879,-0.1897,-0.1848,-0.1781,-0.1761,-0.1685,-0.1518,-0.1362,-0.1305,-0.1198,-0.1139,-0.1149,-0.1135,-0.1184,-0.1174,-0.1288,-0.1264,-0.1023,-0.1023,-0.1023,-0.1023,-0.1023,-0.1023,-0.1757,-0.1716,-0.1724,-0.1642,-0.1645,-0.157,-0.1548,-0.1488,-0.1441,-0.1275,-0.1174,-0.1107,-0.1089,-0.1142,-0.1064,-0.1021,-0.1034,-0.0987,-0.1041,-0.1155,-0.1184,-0.1211,-0.1194,-0.0942,-0.0942,-0.0881,-0.088,-0.088]},{"header":{"parameterUnit":"m.s-1","parameterCategory":2,"la1":30.2991,"la2":30.254,"lo1":-89.0895,"lo2":-89.0444,"dy":0.0017,"dx":0.0017,"nx":28,"ny":28,"refTime":"2025-11-23T09:00:00:Z","depth":"0","parameterNumber":3,"parameterNumberName":"V-component_of_CURRENTS"},"data":[0,0,0,0,0,0,0,0,0,0,0,0,0,0,0,0,0,0,0,0,0,0,0,0,0,0,0,0,0,0,0,0,0,0,0,0,0,0,0,0,0,0,0,0,0,0,0,0,0,0,0,0,0,0,0,0,0,0,-0.02,-0.0199,0,-0.0129,-0.0128,-0.0127,-0.0077,-0.0077,-0.0077,-0.0077,0.0033,0.0035,0.0038,0,0,0,0,0,0,0,0,0,0,0,0,0,-0.0242,-0.0241,-0.02,-0.0199,-0.0198,-0.0129,-0.0128,-0.0127,-0.0077,-0.0077,-0.0077,-0.0076,0.0032,0.0035,0.0038,0,0,0,0,0,0,0,0,0,0,0,0,0,-0.0201,-0.0241,-0.02,-0.0166,-0.0163,-0.0129,-0.0128,-0.0126,-0.0077,-0.0077,-0.0077,-0.0076,0.0031,0.0035,0.0038,0.0055,0,0,0.0051,0.0052,0,0,0,0,0,0,0,0,-0.0204,-0.02,-0.0172,-0.0168,-0.0164,-0.0113,-0.0103,-0.0064,-0.0078,-0.0108,-0.0077,-0.0076,-0.0014,-0.0006,0.0008,0.006,0.0065,0.0051,0.0053,0.0055,0.0056,0,0,0,0,0,0,0,-0.0207,-0.0202,-0.017,-0.0171,-0.0166,-0.0137,-0.0132,-0.0095,-0.0062,-0.0106,-0.0102,-0.0097,-0.0011,0.0004,0.0011,0.0067,0.0051,0.0054,0.0057,0.0058,0.0149,0.0149,0,0,0,0,0,0,-0.0221,-0.0205,-0.0173,-0.0168,-0.0185,-0.0137,-0.0131,-0.0129,-0.0063,-0.0054,-0.0097,-0.0095,-0.0003,0.0006,0.0015,0.0039,0.0055,0.0059,0.0061,0.0149,0.0149,0.0149,0,0,0,0,0,0,-0.0222,-0.0219,-0.0175,-0.0186,-0.0178,-0.0138,-0.0135,-0.0127,-0.0114,-0.0058,-0.0047,-0.0092,-0.0003,0.0009,0.0045,0.0044,0.0061,0.0064,0.0149,0.0149,0.0149,0.0088,0,0,0,0,0,0,-0.0224,-0.022,-0.0225,-0.0187,-0.0178,-0.0164,-0.0135,-0.0126,-0.0111,-0.0107,-0.0049,-0.0039,-0.0001,0.0039,0.0049,0.005,0.0067,0.0149,0.0149,0.0149,0.009,0.0086,0.0082,0,0,0,0,0,-0.0226,-0.0239,-0.0226,-0.0222,-0.0187,-0.0164,-0.0157,-0.0125,-0.0112,-0.011,-0.0069,-0.0041,0.0047,0.0042,0.0054,0.0056,0.0149,0.0149,0.0149,0.0092,0.0087,0.0082,0,0,0,0,0,0,-0.026,-0.0234,-0.0219,-0.0223,-0.0199,-0.0157,-0.0154,-0.0132,-0.0098,-0.0095,-0.004,-0.0026,0.0004,0.0038,0.0032,0.0083,0.0103,0.0105,0.0055,0.005,0.0047,0.0031,0.0071,0,0,0,0,0,-0.0271,-0.0273,-0.024,-0.0243,-0.0234,-0.0195,-0.0183,-0.0162,-0.0127,-0.0112,-0.007,-0.0025,0.0014,0.0037,0.0075,0.0103,0.0144,0.0112,0.0108,0.0105,0.0101,0.0162,0.0163,0.015,0.015,0.015,0,0,-0.0285,-0.0271,-0.0272,-0.0251,-0.0229,-0.0224,-0.0187,-0.0175,-0.0166,-0.0105,-0.0082,-0.0039,0.0018,0.0048,0.0065,0.0077,0.013,0.0105,0.0101,0.01,0.0162,0.0163,0.0164,0.015,0.015,0.015,0,0,-0.032,-0.0302,-0.0318,-0.0302,-0.0278,-0.0251,-0.0251,-0.0212,-0.019,-0.0163,-0.0116,-0.0074,-0.0018,0.0026,0.0055,0.0054,0.0106,0.0064,0.0037,0.0096,0.0097,0.0099,0.015,0.0157,0.0065,0.0065,0.0065,0,-0.0339,-0.0351,-0.0318,-0.0328,-0.0318,-0.0268,-0.0278,-0.0248,-0.0201,-0.0179,-0.0166,-0.0071,-0.0028,0.0024,0.002,0.0045,0.0083,0.0047,0.009,0.0093,0.0096,0.0148,0.0156,0.0062,0.0063,0.0063,0.0063,0,-0.0384,-0.0391,-0.0398,-0.0391,-0.0375,-0.0376,-0.0332,-0.031,-0.0276,-0.0237,-0.0184,-0.012,-0.0061,-0.0041,-0.0012,0.0031,0.0053,0.0075,0.0098,0.0093,0.0149,0.0158,0.0058,0.0059,0.006,0.0061,0,0,-0.0433,-0.0433,-0.0434,-0.044,-0.0409,-0.0401,-0.0383,-0.0344,-0.0323,-0.027,-0.0232,-0.0167,-0.0123,-0.0088,-0.0037,0.0011,0.0061,0.0042,0.0047,0.0086,0.0187,0.0225,0.024,0.009,0.0091,0.0092,0.0216,0,-0.0477,-0.0516,-0.0494,-0.0513,-0.0526,-0.0471,-0.0455,-0.041,-0.0357,-0.0305,-0.0226,-0.0174,-0.0141,-0.0111,-0.0059,0.0038,0.0085,0.0025,0.0192,0.0197,0.0226,0.0252,0.0279,0.0393,0.0226,0.0228,0.0229,0,-0.0527,-0.0545,-0.0583,-0.0573,-0.057,-0.0568,-0.0521,-0.0498,-0.041,-0.0365,-0.0294,-0.0224,-0.0139,-0.0115,0.0039,0.0,0.008,0.015,0.0157,0.0221,0.0254,0.0374,0.0418,0.0517,0.0245,0.0243,0.0242,0,-0.0584,-0.0601,-0.0634,-0.0634,-0.0616,-0.0612,-0.0591,-0.052,-0.0489,-0.0398,-0.0357,-0.0246,-0.0173,-0.0068,0.0078,0.006,0.0254,0.0253,0.0362,0.0366,0.0436,0.0444,0.0592,0.0352,0.0352,0.0352,0.0351,0,-0.0641,-0.0663,-0.0665,-0.0685,-0.0706,-0.0668,-0.066,-0.0618,-0.0543,-0.049,-0.0394,-0.0314,-0.0157,-0.0023,0.0083,0.0266,0.0265,0.0366,0.0406,0.0415,0.0419,0.0546,0.0571,0.0356,0.0355,0.0355,0.0354,0,-0.0699,-0.0703,-0.0739,-0.0739,-0.0739,-0.0753,-0.0718,-0.07,-0.0624,-0.055,-0.0521,-0.0348,-0.0162,-0.0004,0.0201,0.0289,0.0515,0.0504,0.0501,0.0538,0.0708,0.0727,0.0903,0.097,0.0637,0.0639,0.064,0,-0.0732,-0.0762,-0.079,-0.0812,-0.0816,-0.0824,-0.0821,-0.0755,-0.0719,-0.0555,-0.0514,-0.0318,-0.0146,0.0165,0.0352,0.0556,0.0619,0.0687,0.0653,0.0734,0.0785,0.0787,0.083,0.0724,0.0726,0.0728,0.0729,0,-0.079,-0.08,-0.083,-0.0884,-0.09,-0.0906,-0.0888,-0.0866,-0.0755,-0.065,-0.0459,-0.0306,0.0,0.0276,0.0527,0.0641,0.0757,0.0727,0.0826,0.0879,0.0878,0.0957,0.0617,0.0744,0.0743,0.0742,0.0741,0.074,-0.082,-0.0859,-0.0899,-0.0944,-0.0965,-0.0962,-0.0939,-0.0866,-0.0764,-0.0537,-0.0425,-0.0109,0.0204,0.0578,0.0699,0.0945,0.09,0.101,0.1031,0.1029,0.1082,0.0766,0.0925,0.0925,0.0925,0.0924,0.0924,0,-0.0852,-0.0895,-0.0951,-0.0993,-0.1017,-0.1011,-0.0957,-0.0867,-0.0702,-0.0445,-0.0223,0.0234,0.054,0.0817,0.1121,0.1244,0.1254,0.1302,0.1315,0.1349,0.1098,0.1088,0.1272,0.1272,0.1272,0.1272,0.1272,0.1272,-0.0869,-0.0932,-0.0965,-0.1018,-0.1041,-0.101,-0.096,-0.0768,-0.0552,-0.0109,0.0244,0.0498,0.0845,0.1223,0.1495,0.1515,0.1617,0.1594,0.1656,0.1476,0.145,0.1425,0.1425,0.1676,0.1677,0.1903,0.1905,0.1907]}],[{"header":{"parameterUnit":"m.s-1","parameterCategory":2,"la1":30.2991,"la2":30.254,"lo1":-89.0895,"lo2":-89.0444,"dy":0.0017,"dx":0.0017,"nx":28,"ny":28,"refTime":"2025-11-23T09:00:00:Z","depth":"2","parameterNumber":2,"parameterNumberName":"U-component_of_CURRENTS"},"data":[0,0,0,0,0,0,0,0,0,0,0,0,0,0,0,0,0,0,0,0,0,0,0,0,0,0,0,0,0,0,0,0,0,0,0,0,0,0,0,0,0,0,0,0,0,0,0,0,0,0,0,0,0,0,0,0,0,0,-0.2102,-0.2102,0,-0.2114,-0.2114,-0.2114,-0.2092,-0.2092,-0.2091,-0.2091,-0.2057,-0.2057,-0.2057,0,0,0,0,0,0,0,0,0,0,0,0,0,-0.2054,-0.2055,-0.2102,-0.2102,-0.2103,-0.2114,-0.2114,-0.2114,-0.2092,-0.2092,-0.2091,-0.2091,-0.2058,-0.2057,-0.2057,0,0,0,0,0,0,0,0,0,0,0,0,0,-0.2069,-0.2055,-0.2102,-0.2095,-0.2095,-0.2114,-0.2114,-0.2114,-0.2092,-0.2092,-0.2091,-0.209,-0.2058,-0.2057,-0.2057,-0.2068,0,0,-0.2055,-0.2054,0,0,0,0,0,0,0,0,-0.2068,-0.2071,-0.2096,-0.2096,-0.2095,-0.2103,-0.2085,-0.2097,-0.2093,-0.2091,-0.2091,-0.209,-0.2071,-0.2069,-0.207,-0.2066,-0.2065,-0.2055,-0.2054,-0.2054,-0.2054,0,0,0,0,0,0,0,-0.2067,-0.207,-0.2104,-0.2096,-0.2096,-0.2089,-0.209,-0.2087,-0.2082,-0.2091,-0.209,-0.2095,-0.207,-0.2071,-0.2069,-0.2064,-0.2055,-0.2054,-0.2054,-0.2053,-0.2071,-0.2072,0,0,0,0,0,0,-0.2072,-0.2069,-0.2104,-0.2105,-0.2082,-0.2091,-0.2092,-0.2099,-0.2083,-0.2081,-0.2096,-0.2094,-0.2072,-0.207,-0.2068,-0.2087,-0.2054,-0.2053,-0.2053,-0.207,-0.2071,-0.2072,0,0,0,0,0,0,-0.2071,-0.2075,-0.2104,-0.2089,-0.2092,-0.2093,-0.2101,-0.21,-0.2102,-0.2088,-0.2084,-0.2099,-0.2071,-0.2069,-0.2072,-0.2085,-0.2053,-0.2052,-0.2069,-0.2071,-0.2072,-0.212,0,0,0,0,0,0,-0.207,-0.2075,-0.2078,-0.2089,-0.2093,-0.2121,-0.2102,-0.2101,-0.2107,-0.2105,-0.2089,-0.2085,-0.2071,-0.2073,-0.2072,-0.2083,-0.2052,-0.2068,-0.207,-0.2071,-0.2117,-0.2123,-0.2127,0,0,0,0,0,-0.2068,-0.2079,-0.2078,-0.2082,-0.2099,-0.2122,-0.2123,-0.2119,-0.2108,-0.2116,-0.2106,-0.2086,-0.2082,-0.2074,-0.2071,-0.2083,-0.2068,-0.2069,-0.2071,-0.2115,-0.2122,-0.2127,0,0,0,0,0,0,-0.2059,-0.2079,-0.2078,-0.2094,-0.2109,-0.2119,-0.2125,-0.2124,-0.2123,-0.2117,-0.2099,-0.2095,-0.2102,-0.2089,-0.2081,-0.2093,-0.2071,-0.2072,-0.2105,-0.2111,-0.2116,-0.2113,-0.2051,0,0,0,0,0,-0.206,-0.2071,-0.2092,-0.2102,-0.2113,-0.2119,-0.2126,-0.2128,-0.2131,-0.2129,-0.2121,-0.2112,-0.211,-0.2107,-0.2103,-0.2112,-0.2086,-0.2117,-0.2122,-0.2126,-0.2123,-0.2105,-0.2108,-0.2079,-0.2079,-0.2079,0,0,-0.2058,-0.2071,-0.2076,-0.2101,-0.2109,-0.2132,-0.2121,-0.2138,-0.2152,-0.2126,-0.2137,-0.213,-0.2117,-0.2127,-0.2129,-0.2116,-0.2121,-0.2129,-0.2133,-0.2127,-0.2107,-0.211,-0.2112,-0.208,-0.208,-0.2079,0,0,-0.2064,-0.2074,-0.2088,-0.2107,-0.213,-0.2139,-0.2147,-0.2165,-0.2167,-0.2183,-0.2167,-0.2167,-0.2167,-0.216,-0.2156,-0.2186,-0.215,-0.2187,-0.2208,-0.2191,-0.2193,-0.2195,-0.2163,-0.2161,-0.2188,-0.2188,-0.2188,0,-0.2059,-0.2081,-0.2095,-0.212,-0.2135,-0.2146,-0.2169,-0.2181,-0.2195,-0.2199,-0.2191,-0.219,-0.218,-0.2187,-0.22,-0.2196,-0.2176,-0.2187,-0.2197,-0.2198,-0.2198,-0.2165,-0.2163,-0.2191,-0.2191,-0.219,-0.219,0,-0.2079,-0.21,-0.2112,-0.2145,-0.2166,-0.2187,-0.2213,-0.2228,-0.2232,-0.2238,-0.2246,-0.2236,-0.2232,-0.2235,-0.2227,-0.2232,-0.2213,-0.2206,-0.218,-0.2204,-0.2168,-0.2164,-0.2194,-0.2194,-0.2193,-0.2192,0,0,-0.2051,-0.2113,-0.2115,-0.2135,-0.218,-0.2197,-0.2231,-0.2258,-0.2268,-0.2281,-0.2286,-0.2293,-0.2281,-0.2276,-0.2266,-0.2255,-0.2245,-0.2237,-0.2235,-0.2202,-0.2196,-0.2107,-0.2094,-0.2242,-0.2242,-0.2241,-0.2167,0,-0.2057,-0.2103,-0.2135,-0.2173,-0.2198,-0.2229,-0.2258,-0.2284,-0.2297,-0.2307,-0.2302,-0.2302,-0.23,-0.2293,-0.2287,-0.2256,-0.2238,-0.2264,-0.218,-0.2177,-0.2092,-0.2088,-0.1948,-0.1864,-0.2164,-0.2163,-0.2162,0,-0.2057,-0.2089,-0.213,-0.2185,-0.2198,-0.2224,-0.226,-0.2288,-0.2315,-0.2323,-0.233,-0.2323,-0.2318,-0.2306,-0.2264,-0.2282,-0.2243,-0.2215,-0.2211,-0.2106,-0.2081,-0.1889,-0.1845,-0.2156,-0.2156,-0.2157,-0.2157,0,-0.2015,-0.2081,-0.2109,-0.213,-0.2197,-0.2216,-0.2247,-0.2285,-0.23,-0.2326,-0.2328,-0.233,-0.2312,-0.2285,-0.2232,-0.225,-0.2167,-0.2181,-0.2061,-0.2054,-0.1904,-0.1884,-0.2139,-0.2139,-0.214,-0.214,-0.214,0,-0.1999,-0.2018,-0.2092,-0.2105,-0.213,-0.2191,-0.2212,-0.2245,-0.2284,-0.2287,-0.2325,-0.2309,-0.2305,-0.2261,-0.2226,-0.2118,-0.2158,-0.2052,-0.2026,-0.1917,-0.1899,-0.2132,-0.2133,-0.2137,-0.2138,-0.2138,-0.2139,0,-0.1936,-0.1991,-0.202,-0.209,-0.2108,-0.2121,-0.2182,-0.2194,-0.2247,-0.225,-0.2256,-0.228,-0.222,-0.2191,-0.2126,-0.2082,-0.2006,-0.1955,-0.1819,-0.1778,-0.191,-0.1914,-0.1824,-0.182,-0.1817,-0.1814,-0.1812,0,-0.1906,-0.1917,-0.1983,-0.1992,-0.2019,-0.2055,-0.2074,-0.2153,-0.2168,-0.2214,-0.2199,-0.2171,-0.2101,-0.1981,-0.1904,-0.1802,-0.1887,-0.1627,-0.1637,-0.1892,-0.1877,-0.1886,-0.1893,-0.1459,-0.1454,-0.145,-0.1447,0,-0.1829,-0.1854,-0.1874,-0.1899,-0.1921,-0.1945,-0.1984,-0.1993,-0.2072,-0.207,-0.2039,-0.1988,-0.1891,-0.1713,-0.1604,-0.1544,-0.1639,-0.154,-0.1824,-0.1565,-0.1543,-0.153,-0.1551,-0.1411,-0.1414,-0.1417,-0.1419,-0.142,-0.1751,-0.1743,-0.177,-0.1778,-0.1806,-0.1807,-0.1777,-0.1824,-0.1812,-0.1774,-0.1824,-0.1682,-0.1654,-0.1387,-0.1305,-0.1254,-0.1374,-0.1325,-0.134,-0.1358,-0.1333,-0.1307,-0.1125,-0.1127,-0.1129,-0.113,-0.1131,0,-0.1639,-0.164,-0.1646,-0.1647,-0.1619,-0.1681,-0.1685,-0.162,-0.1549,-0.1536,-0.1469,-0.1245,-0.1126,-0.1102,-0.0957,-0.0936,-0.0958,-0.0907,-0.0939,-0.0975,-0.1006,-0.0967,-0.0659,-0.0658,-0.0657,-0.0656,0,0,-0.1579,-0.1535,-0.1537,-0.1449,-0.1448,-0.1357,-0.1325,-0.1247,-0.1194,-0.1052,-0.0966,-0.1029,-0.1032,-0.0828,-0.08,-0.0697,-0.0829,-0.0663,-0.1039,-0.1109,-0.1139,-0.124,-0.1217,0,0,0,0,0]},{"header":{"parameterUnit":"m.s-1","parameterCategory":2,"la1":30.2991,"la2":30.254,"lo1":-89.0895,"lo2":-89.0444,"dy":0.0017,"dx":0.0017,"nx":28,"ny":28,"refTime":"2025-11-23T09:00:00:Z","depth":"2","parameterNumber":3,"parameterNumberName":"V-component_of_CURRENTS"},"data":[0,0,0,0,0,0,0,0,0,0,0,0,0,0,0,0,0,0,0,0,0,0,0,0,0,0,0,0,0,0,0,0,0,0,0,0,0,0,0,0,0,0,0,0,0,0,0,0,0,0,0,0,0,0,0,0,0,0,-0.0311,-0.0311,0,-0.0249,-0.0248,-0.0247,-0.0204,-0.0203,-0.0203,-0.0203,-0.0105,-0.0102,-0.01,0,0,0,0,0,0,0,0,0,0,0,0,0,-0.0348,-0.0348,-0.0311,-0.0311,-0.031,-0.0249,-0.0248,-0.0247,-0.0204,-0.0203,-0.0203,-0.0203,-0.0105,-0.0103,-0.01,0,0,0,0,0,0,0,0,0,0,0,0,0,-0.0313,-0.0348,-0.0311,-0.0282,-0.0278,-0.0249,-0.0248,-0.0247,-0.0204,-0.0203,-0.0203,-0.0203,-0.0106,-0.0103,-0.0099,-0.0085,0,0,-0.0088,-0.0087,0,0,0,0,0,0,0,0,-0.0315,-0.0311,-0.0287,-0.0284,-0.028,-0.0235,-0.0225,-0.0191,-0.0204,-0.0231,-0.0203,-0.0202,-0.0146,-0.0139,-0.0127,-0.008,-0.0076,-0.0088,-0.0086,-0.0084,-0.0083,0,0,0,0,0,0,0,-0.0317,-0.0313,-0.0286,-0.0286,-0.0282,-0.0256,-0.0251,-0.0218,-0.019,-0.0229,-0.0225,-0.022,-0.0143,-0.0131,-0.0124,-0.0075,-0.0088,-0.0085,-0.0083,-0.0081,0.0002,0.0002,0,0,0,0,0,0,-0.033,-0.0316,-0.0288,-0.0284,-0.0298,-0.0256,-0.025,-0.0249,-0.0191,-0.0182,-0.0221,-0.0218,-0.0137,-0.0129,-0.0121,-0.0094,-0.0084,-0.0081,-0.0079,0.0002,0.0002,0.0002,0,0,0,0,0,0,-0.0331,-0.0328,-0.029,-0.0299,-0.0292,-0.0256,-0.0254,-0.0248,-0.0235,-0.0185,-0.0176,-0.0215,-0.0136,-0.0126,-0.0092,-0.009,-0.0079,-0.0076,0.0002,0.0002,0.0002,-0.0044,0,0,0,0,0,0,-0.0332,-0.0329,-0.0333,-0.03,-0.0292,-0.0278,-0.0255,-0.0247,-0.0233,-0.0229,-0.0178,-0.0168,-0.0135,-0.0098,-0.0089,-0.0085,-0.0073,0.0002,0.0002,0.0002,-0.0042,-0.0045,-0.0048,0,0,0,0,0,-0.0334,-0.0344,-0.0334,-0.0331,-0.03,-0.0279,-0.0273,-0.0244,-0.0233,-0.0231,-0.0194,-0.017,-0.009,-0.0095,-0.0084,-0.0079,0.0002,0.0002,0.0002,-0.0041,-0.0045,-0.0048,0,0,0,0,0,0,-0.0362,-0.034,-0.0328,-0.0331,-0.0309,-0.0272,-0.0269,-0.0249,-0.0219,-0.0216,-0.0168,-0.0156,-0.0126,-0.0097,-0.0104,-0.0055,-0.004,-0.0038,-0.0077,-0.008,-0.0082,-0.0095,-0.007,0,0,0,0,0,-0.0372,-0.0374,-0.0344,-0.0347,-0.0339,-0.0305,-0.0294,-0.0275,-0.0244,-0.0231,-0.0193,-0.0153,-0.0117,-0.0096,-0.0062,-0.0035,-0.0001,-0.0024,-0.0027,-0.003,-0.0033,0.0023,0.0025,0.0003,0.0003,0.0003,0,0,-0.0383,-0.0371,-0.0372,-0.0353,-0.0334,-0.0328,-0.0297,-0.0285,-0.0276,-0.0224,-0.0201,-0.0163,-0.0113,-0.0083,-0.0067,-0.0058,-0.0006,-0.003,-0.0032,-0.0034,0.0023,0.0026,0.0028,0.0003,0.0003,0.0003,0,0,-0.0411,-0.0397,-0.041,-0.0395,-0.0374,-0.035,-0.035,-0.0315,-0.0294,-0.0269,-0.0228,-0.0189,-0.0138,-0.0097,-0.0071,-0.0068,-0.0025,-0.0059,-0.0078,-0.0024,-0.0022,-0.002,0.0023,0.003,-0.0057,-0.0057,-0.0057,0,-0.0427,-0.0437,-0.0409,-0.0415,-0.0407,-0.0364,-0.0371,-0.0344,-0.0301,-0.0281,-0.0269,-0.0183,-0.0143,-0.0094,-0.0094,-0.0073,-0.0041,-0.0071,-0.0028,-0.0025,-0.0021,0.0022,0.003,-0.0059,-0.0059,-0.0059,-0.0059,0,-0.0463,-0.0469,-0.0474,-0.0467,-0.0452,-0.0452,-0.0412,-0.0392,-0.0362,-0.0326,-0.0276,-0.0218,-0.0166,-0.0146,-0.0119,-0.0075,-0.006,-0.0041,-0.0022,-0.0022,0.0024,0.0033,-0.0063,-0.0062,-0.0061,-0.0061,0,0,-0.0503,-0.0502,-0.0503,-0.051,-0.0481,-0.0474,-0.0454,-0.0419,-0.0399,-0.0349,-0.0316,-0.0251,-0.0213,-0.0182,-0.0136,-0.0088,-0.0038,-0.0061,-0.0058,-0.0024,0.0074,0.0099,0.0111,-0.0012,-0.0011,-0.001,0.0095,0,-0.0541,-0.0574,-0.0553,-0.0569,-0.0581,-0.0532,-0.0516,-0.0475,-0.0426,-0.0381,-0.0307,-0.026,-0.0227,-0.0201,-0.0149,-0.0062,-0.0016,-0.0069,0.0073,0.0077,0.0096,0.0122,0.0094,0.0186,0.0104,0.0106,0.0107,0,-0.0582,-0.0599,-0.0632,-0.0624,-0.0622,-0.062,-0.0579,-0.0557,-0.0476,-0.0436,-0.037,-0.0308,-0.0227,-0.0203,-0.006,-0.0095,-0.0021,0.0044,0.005,0.0095,0.0119,0.0175,0.0206,0.0122,0.0121,0.012,0.0119,0,-0.0635,-0.0649,-0.068,-0.0679,-0.0664,-0.0661,-0.0643,-0.0577,-0.0551,-0.0467,-0.0434,-0.0329,-0.0266,-0.0165,-0.003,-0.0043,0.013,0.0133,0.0225,0.0227,0.0243,0.0244,0.0228,0.0228,0.0228,0.0228,0.0227,0,-0.0686,-0.0706,-0.071,-0.0728,-0.0751,-0.0715,-0.0711,-0.0672,-0.0606,-0.0564,-0.047,-0.0405,-0.0253,-0.0133,-0.003,0.0133,0.0136,0.0229,0.0262,0.0225,0.0224,0.0198,0.0193,0.0231,0.0231,0.023,0.0229,0,-0.074,-0.0743,-0.0779,-0.0781,-0.0782,-0.0798,-0.077,-0.0757,-0.0688,-0.0628,-0.0603,-0.0448,-0.0283,-0.0131,0.0061,0.0144,0.0287,0.034,0.0283,0.0307,0.0343,0.0335,0.0449,0.0451,0.0453,0.0454,0.0455,0,-0.0772,-0.08,-0.0829,-0.0853,-0.0858,-0.0869,-0.0872,-0.0811,-0.0784,-0.0645,-0.0615,-0.0441,-0.0296,-0.0011,0.0168,0.0361,0.0352,0.0433,0.0404,0.0349,0.0369,0.0358,0.0348,0.0406,0.0407,0.0407,0.0408,0,-0.0828,-0.0839,-0.0868,-0.0925,-0.0946,-0.0957,-0.0948,-0.0936,-0.084,-0.0755,-0.0601,-0.0471,-0.0192,0.0038,0.0277,0.0378,0.0397,0.045,0.0431,0.0349,0.0315,0.0332,0.0322,0.0412,0.0412,0.0411,0.0411,0.0411,-0.0861,-0.0899,-0.0941,-0.0988,-0.1015,-0.1027,-0.1021,-0.0969,-0.0894,-0.0732,-0.0603,-0.0361,-0.0173,0.0199,0.0344,0.0478,0.0476,0.0498,0.0493,0.0489,0.046,0.043,0.0543,0.0543,0.0543,0.0544,0.0544,0,-0.0898,-0.094,-0.0996,-0.1046,-0.108,-0.1075,-0.1052,-0.1003,-0.0891,-0.0712,-0.0527,-0.0259,-0.0,0.0198,0.0416,0.0532,0.0506,0.0541,0.0479,0.0474,0.047,0.0436,0.0515,0.0516,0.0516,0.0516,0,0,-0.0918,-0.0982,-0.1014,-0.1082,-0.1111,-0.1114,-0.109,-0.0988,-0.0849,-0.0642,-0.0439,-0.0203,0.0035,0.0181,0.0315,0.0424,0.0412,0.0428,0.0438,0.034,0.0335,0.0433,0.0376,0,0,0,0,0]}],[{"header":{"parameterUnit":"m.s-1","parameterCategory":2,"la1":30.2991,"la2":30.254,"lo1":-89.0895,"lo2":-89.0444,"dy":0.0017,"dx":0.0017,"nx":28,"ny":28,"refTime":"2025-11-23T09:00:00:Z","depth":"4","parameterNumber":2,"parameterNumberName":"U-component_of_CURRENTS"},"data":[0,0,0,0,0,0,0,0,0,0,0,0,0,0,0,0,0,0,0,0,0,0,0,0,0,0,0,0,0,0,0,0,0,0,0,0,0,0,0,0,0,0,0,0,0,0,0,0,0,0,0,0,0,0,0,0,0,0,-0.1479,-0.148,0,-0.1527,-0.1528,-0.1528,-0.156,-0.1561,-0.1561,-0.1561,-0.1599,-0.16,-0.1601,0,0,0,0,0,0,0,0,0,0,0,0,0,-0.141,-0.1411,-0.1479,-0.148,-0.148,-0.1527,-0.1528,-0.1528,-0.156,-0.1561,-0.1561,-0.1561,-0.1599,-0.16,-0.1601,0,0,0,0,0,0,0,0,0,0,0,0,0,-0.1446,-0.1411,-0.1479,-0.1503,-0.1506,-0.1527,-0.1528,-0.1529,-0.156,-0.1561,-0.1561,-0.1562,-0.1599,-0.16,-0.1601,-0.1597,0,0,-0.1604,-0.1605,0,0,0,0,0,0,0,0,-0.1444,-0.1448,-0.1499,-0.1501,-0.1504,-0.154,-0.1518,-0.1552,-0.156,-0.1538,-0.1561,-0.1562,-0.1579,-0.1582,-0.1588,-0.1599,-0.1601,-0.1604,-0.1605,-0.1605,-0.1606,0,0,0,0,0,0,0,-0.1441,-0.1446,-0.1497,-0.1499,-0.1503,-0.151,-0.1516,-0.1524,-0.1554,-0.154,-0.1543,-0.155,-0.158,-0.1587,-0.1589,-0.1601,-0.1604,-0.1605,-0.1606,-0.1606,-0.1674,-0.1675,0,0,0,0,0,0,-0.1438,-0.1444,-0.1495,-0.1498,-0.1476,-0.1511,-0.1517,-0.1527,-0.1554,-0.1559,-0.155,-0.1551,-0.1585,-0.1588,-0.159,-0.1649,-0.1605,-0.1606,-0.1607,-0.1673,-0.1674,-0.1676,0,0,0,0,0,0,-0.1436,-0.1442,-0.1493,-0.1473,-0.148,-0.1512,-0.1522,-0.1527,-0.1559,-0.1562,-0.1567,-0.1579,-0.1585,-0.1589,-0.1624,-0.1649,-0.1607,-0.1608,-0.1672,-0.1673,-0.1675,-0.1728,0,0,0,0,0,0,-0.1434,-0.1441,-0.1458,-0.1473,-0.1481,-0.1524,-0.1522,-0.1528,-0.1562,-0.1565,-0.1588,-0.159,-0.1586,-0.1623,-0.1625,-0.1649,-0.1609,-0.167,-0.1672,-0.1674,-0.1724,-0.1731,-0.1736,0,0,0,0,0,-0.1431,-0.145,-0.1459,-0.1466,-0.15,-0.1525,-0.1531,-0.1553,-0.1563,-0.1582,-0.16,-0.1591,-0.1638,-0.1625,-0.1627,-0.1652,-0.1669,-0.1672,-0.1674,-0.1722,-0.173,-0.1736,0,0,0,0,0,0,-0.1431,-0.1455,-0.1465,-0.1492,-0.1516,-0.1532,-0.1555,-0.1568,-0.1597,-0.1608,-0.1608,-0.1612,-0.165,-0.1645,-0.1631,-0.1678,-0.1651,-0.1654,-0.1686,-0.1694,-0.17,-0.1693,-0.161,0,0,0,0,0,-0.1438,-0.1459,-0.1481,-0.1505,-0.1519,-0.1542,-0.156,-0.1576,-0.1597,-0.1612,-0.1629,-0.1645,-0.1659,-0.1673,-0.1683,-0.1712,-0.1688,-0.1729,-0.1735,-0.174,-0.1737,-0.1726,-0.1731,-0.1684,-0.1684,-0.1684,0,0,-0.1445,-0.1461,-0.1475,-0.1507,-0.1527,-0.1554,-0.1555,-0.159,-0.1617,-0.1611,-0.1661,-0.1669,-0.1671,-0.1704,-0.172,-0.1706,-0.1741,-0.1744,-0.1748,-0.1742,-0.1729,-0.1734,-0.1738,-0.1686,-0.1686,-0.1686,0,0,-0.1461,-0.1486,-0.1507,-0.153,-0.1566,-0.158,-0.1597,-0.163,-0.1653,-0.1695,-0.1696,-0.172,-0.175,-0.1753,-0.1757,-0.1802,-0.1773,-0.1812,-0.184,-0.1831,-0.1834,-0.1836,-0.1809,-0.1809,-0.1816,-0.1817,-0.1817,0,-0.1471,-0.1497,-0.1518,-0.1544,-0.1568,-0.1596,-0.1624,-0.1651,-0.1694,-0.1712,-0.172,-0.1762,-0.1769,-0.1792,-0.1812,-0.1815,-0.18,-0.1812,-0.1837,-0.1839,-0.1841,-0.1812,-0.1811,-0.1819,-0.1819,-0.1819,-0.1818,0,-0.1492,-0.1526,-0.1543,-0.1583,-0.1612,-0.1644,-0.1679,-0.1716,-0.1747,-0.1766,-0.1809,-0.1819,-0.1839,-0.1851,-0.1848,-0.187,-0.1852,-0.1844,-0.1816,-0.1849,-0.1816,-0.1814,-0.1823,-0.1822,-0.1822,-0.1821,0,0,-0.1476,-0.1544,-0.1552,-0.1579,-0.1636,-0.1658,-0.1712,-0.1755,-0.1784,-0.1828,-0.1857,-0.189,-0.1895,-0.1899,-0.1901,-0.1899,-0.1902,-0.1885,-0.1883,-0.1853,-0.1871,-0.1744,-0.1729,-0.1903,-0.1903,-0.1903,-0.1842,0,-0.1487,-0.1537,-0.1572,-0.1627,-0.1655,-0.1703,-0.1745,-0.179,-0.1827,-0.1865,-0.1881,-0.191,-0.1914,-0.1927,-0.1929,-0.1909,-0.19,-0.1918,-0.1848,-0.1845,-0.1724,-0.1724,-0.1904,-0.184,-0.184,-0.1839,-0.1839,0,-0.1486,-0.1522,-0.1577,-0.1645,-0.1663,-0.1705,-0.1771,-0.1812,-0.1867,-0.1895,-0.1928,-0.1939,-0.1955,-0.1949,-0.1927,-0.1941,-0.1912,-0.189,-0.1887,-0.1746,-0.1714,-0.1801,-0.1835,-0.1835,-0.1835,-0.1836,-0.1836,0,-0.1442,-0.1521,-0.1565,-0.159,-0.1673,-0.1712,-0.176,-0.1823,-0.1853,-0.1914,-0.193,-0.1957,-0.196,-0.1944,-0.1906,-0.1923,-0.1859,-0.1871,-0.1725,-0.1715,-0.1826,-0.1824,-0.1844,-0.1844,-0.1844,-0.1844,-0.1844,0,-0.1418,-0.1456,-0.1554,-0.1575,-0.1626,-0.1698,-0.175,-0.1801,-0.1863,-0.1876,-0.1941,-0.1934,-0.196,-0.1928,-0.1902,-0.1789,-0.1852,-0.1715,-0.1687,-0.185,-0.1851,-0.1824,-0.1823,-0.1842,-0.1842,-0.1843,-0.1843,0,-0.1352,-0.1421,-0.1473,-0.1573,-0.1605,-0.1641,-0.1735,-0.176,-0.1837,-0.1854,-0.1871,-0.1913,-0.1866,-0.1859,-0.1813,-0.1754,-0.1681,-0.1626,-0.1783,-0.1767,-0.1549,-0.1551,-0.146,-0.1455,-0.1451,-0.1447,-0.1444,0,-0.1317,-0.134,-0.1449,-0.1476,-0.1525,-0.1594,-0.1629,-0.1729,-0.1747,-0.1811,-0.1794,-0.1791,-0.1795,-0.1614,-0.1643,-0.1562,-0.1546,-0.1505,-0.1545,-0.1526,-0.1508,-0.1517,-0.1525,-0.1437,-0.1436,-0.1435,-0.1434,0,-0.1239,-0.1293,-0.1331,-0.1388,-0.1438,-0.1481,-0.1541,-0.154,-0.163,-0.172,-0.1651,-0.1612,-0.1551,-0.1509,-0.1447,-0.1402,-0.1535,-0.146,-0.147,-0.1508,-0.1497,-0.1486,-0.1499,-0.1419,-0.1421,-0.1422,-0.1423,0,-0.1175,-0.1181,-0.1239,-0.1271,-0.1332,-0.1334,-0.1388,-0.1393,-0.1422,-0.1503,-0.1471,-0.1471,-0.1517,-0.1423,-0.1371,-0.1308,-0.13,-0.1267,-0.1287,-0.1304,-0.1283,-0.1249,-0.1054,0,0,0,0,0,-0.1099,-0.1087,-0.1112,-0.1137,-0.1193,-0.122,-0.1305,-0.1362,-0.1452,-0.1354,-0.1407,-0.1342,-0.1265,-0.1279,-0.1178,-0.1312,-0.1313,-0.1193,-0.1289,-0.1336,-0.1353,-0.1344,0,0,0,0,0,0,-0.1047,-0.1063,-0.1065,-0.1013,-0.1002,-0.104,-0.1085,-0.1153,-0.1113,-0.1209,-0.1167,-0.1247,-0.1189,-0.1274,-0.1139,-0.1143,-0.1174,-0.1213,-0.1209,-0.1326,-0.1342,-0.1356,-0.1353,0,0,0,0,0]},{"header":{"parameterUnit":"m.s-1","parameterCategory":2,"la1":30.2991,"la2":30.254,"lo1":-89.0895,"lo2":-89.0444,"dy":0.0017,"dx":0.0017,"nx":28,"ny":28,"refTime":"2025-11-23T09:00:00:Z","depth":"4","parameterNumber":3,"parameterNumberName":"V-component_of_CURRENTS"},"data":[0,0,0,0,0,0,0,0,0,0,0,0,0,0,0,0,0,0,0,0,0,0,0,0,0,0,0,0,0,0,0,0,0,0,0,0,0,0,0,0,0,0,0,0,0,0,0,0,0,0,0,0,0,0,0,0,0,0,-0.027,-0.027,0,-0.0234,-0.0233,-0.0233,-0.021,-0.021,-0.021,-0.021,-0.0142,-0.014,-0.0139,0,0,0,0,0,0,0,0,0,0,0,0,0,-0.0287,-0.0287,-0.027,-0.027,-0.0269,-0.0234,-0.0233,-0.0233,-0.021,-0.021,-0.021,-0.021,-0.0143,-0.0141,-0.0138,0,0,0,0,0,0,0,0,0,0,0,0,0,-0.0267,-0.0287,-0.027,-0.0254,-0.0252,-0.0234,-0.0233,-0.0233,-0.021,-0.021,-0.021,-0.021,-0.0143,-0.0141,-0.0138,-0.0124,0,0,-0.013,-0.0129,0,0,0,0,0,0,0,0,-0.0268,-0.0267,-0.0257,-0.0255,-0.0253,-0.0227,-0.0214,-0.0195,-0.021,-0.0225,-0.021,-0.021,-0.0168,-0.0163,-0.0156,-0.0121,-0.0118,-0.013,-0.0128,-0.0127,-0.0126,0,0,0,0,0,0,0,-0.027,-0.0268,-0.0255,-0.0257,-0.0254,-0.0238,-0.0235,-0.021,-0.0197,-0.0224,-0.0223,-0.022,-0.0167,-0.0159,-0.0154,-0.0117,-0.013,-0.0128,-0.0126,-0.0125,-0.0062,-0.0062,0,0,0,0,0,0,-0.0278,-0.0269,-0.0256,-0.0254,-0.0262,-0.0238,-0.0235,-0.0235,-0.0197,-0.0192,-0.022,-0.0219,-0.0163,-0.0157,-0.0152,-0.013,-0.0127,-0.0125,-0.0123,-0.0062,-0.0062,-0.0062,0,0,0,0,0,0,-0.0278,-0.0277,-0.0257,-0.0261,-0.0258,-0.0238,-0.0238,-0.0234,-0.023,-0.0195,-0.0189,-0.022,-0.0163,-0.0156,-0.0133,-0.0127,-0.0124,-0.0121,-0.0062,-0.0062,-0.0062,-0.0088,0,0,0,0,0,0,-0.0279,-0.0277,-0.0283,-0.0262,-0.0258,-0.0251,-0.0238,-0.0234,-0.0229,-0.0227,-0.0193,-0.0186,-0.0162,-0.0137,-0.013,-0.0124,-0.0119,-0.0062,-0.0062,-0.0062,-0.0087,-0.0088,-0.009,0,0,0,0,0,-0.028,-0.0287,-0.0284,-0.0283,-0.0266,-0.0251,-0.0248,-0.0233,-0.0229,-0.0228,-0.0205,-0.0187,-0.0131,-0.0135,-0.0127,-0.0119,-0.0062,-0.0062,-0.0062,-0.0086,-0.0088,-0.009,0,0,0,0,0,0,-0.0297,-0.0285,-0.0281,-0.0285,-0.0272,-0.0248,-0.0248,-0.0238,-0.0219,-0.022,-0.0186,-0.0178,-0.0156,-0.0136,-0.0141,-0.0101,-0.0093,-0.0092,-0.0115,-0.0116,-0.0118,-0.0125,-0.0117,0,0,0,0,0,-0.0305,-0.0309,-0.0291,-0.0296,-0.0291,-0.0272,-0.0266,-0.0256,-0.0236,-0.0228,-0.0203,-0.0175,-0.0148,-0.0132,-0.0108,-0.0086,-0.006,-0.0076,-0.0077,-0.0078,-0.0079,-0.0034,-0.0031,-0.0061,-0.0061,-0.0061,0,0,-0.0313,-0.0308,-0.031,-0.03,-0.029,-0.0286,-0.0268,-0.0263,-0.0256,-0.0223,-0.0208,-0.0181,-0.0144,-0.012,-0.0108,-0.0102,-0.0058,-0.0078,-0.0079,-0.008,-0.0033,-0.003,-0.0027,-0.0061,-0.0061,-0.0061,0,0,-0.0332,-0.0328,-0.0337,-0.0328,-0.0318,-0.0303,-0.0304,-0.0282,-0.027,-0.0253,-0.0225,-0.0194,-0.0159,-0.0126,-0.0105,-0.0099,-0.0069,-0.0094,-0.0103,-0.0058,-0.0055,-0.0053,-0.0023,-0.0017,-0.0092,-0.0092,-0.0092,0,-0.0344,-0.0353,-0.0337,-0.0341,-0.0339,-0.0313,-0.0319,-0.03,-0.0273,-0.026,-0.0254,-0.019,-0.0159,-0.0118,-0.0115,-0.0101,-0.0079,-0.01,-0.006,-0.0057,-0.0053,-0.0023,-0.0016,-0.0093,-0.0093,-0.0093,-0.0093,0,-0.0365,-0.0374,-0.0378,-0.0376,-0.0368,-0.037,-0.0343,-0.0331,-0.0314,-0.029,-0.0252,-0.0207,-0.0169,-0.0151,-0.0131,-0.009,-0.0083,-0.007,-0.0057,-0.0052,-0.002,-0.0013,-0.0095,-0.0094,-0.0094,-0.0094,0,0,-0.0389,-0.0394,-0.0397,-0.0406,-0.0389,-0.0387,-0.0372,-0.0349,-0.034,-0.0301,-0.0279,-0.0223,-0.0197,-0.0172,-0.0136,-0.0093,-0.0048,-0.0075,-0.0072,-0.0048,0.0039,0.0024,0.0031,-0.0028,-0.0027,-0.0026,0.0049,0,-0.0414,-0.0441,-0.0428,-0.0446,-0.0457,-0.0428,-0.0418,-0.039,-0.0359,-0.0329,-0.0268,-0.0236,-0.0204,-0.0187,-0.0138,-0.0071,-0.0029,-0.0071,0.0033,0.0035,0.002,0.0039,-0.0022,0.0055,0.0056,0.0058,0.0059,0,-0.0439,-0.0455,-0.0485,-0.049,-0.0491,-0.0495,-0.0476,-0.0461,-0.0404,-0.0377,-0.0325,-0.0279,-0.0209,-0.0187,-0.0066,-0.0096,-0.0035,0.0019,0.0024,0.0024,0.0034,0.0051,0.0073,0.0072,0.0071,0.007,0.0069,0,-0.0473,-0.0492,-0.0522,-0.0525,-0.0524,-0.053,-0.0524,-0.0481,-0.0467,-0.0407,-0.0388,-0.0299,-0.0254,-0.0163,-0.0054,-0.0059,0.0078,0.0086,0.0131,0.013,0.0132,0.0129,0.0169,0.0169,0.0169,0.0169,0.0169,0,-0.0503,-0.0526,-0.0547,-0.0565,-0.0597,-0.0576,-0.0588,-0.0563,-0.0521,-0.0498,-0.0421,-0.0378,-0.0244,-0.015,-0.0059,0.0058,0.0076,0.0133,0.0153,0.0118,0.0112,0.0138,0.0133,0.0172,0.0171,0.0171,0.017,0,-0.0534,-0.0547,-0.0587,-0.0608,-0.0619,-0.0643,-0.0644,-0.0643,-0.0598,-0.0565,-0.0548,-0.0429,-0.0303,-0.0173,-0.0012,0.0049,0.0162,0.0198,0.0145,0.016,0.0184,0.0178,0.0253,0.0253,0.0253,0.0253,0.0254,0,-0.0551,-0.0578,-0.0631,-0.0663,-0.0679,-0.0708,-0.0724,-0.0691,-0.0677,-0.059,-0.0571,-0.0446,-0.0357,-0.0137,-0.0009,0.0162,0.0184,0.023,0.0214,0.0183,0.0195,0.0188,0.0181,0.0254,0.0254,0.0254,0.0254,0,-0.0582,-0.0608,-0.0642,-0.0714,-0.0752,-0.078,-0.0793,-0.0787,-0.0729,-0.0694,-0.0571,-0.0446,-0.0301,-0.0132,0.0001,0.0122,0.0192,0.0232,0.0232,0.0218,0.0185,0.0195,0.0188,0.0254,0.0254,0.0254,0.0254,0,-0.0603,-0.064,-0.0694,-0.0749,-0.0804,-0.0829,-0.0833,-0.0794,-0.0765,-0.0656,-0.0615,-0.0446,-0.0336,-0.0152,-0.0029,0.0087,0.0112,0.0136,0.0142,0.0143,0.0084,0.0026,0.0068,0,0,0,0,0,-0.0616,-0.0658,-0.0721,-0.0779,-0.0835,-0.0857,-0.0864,-0.0849,-0.0796,-0.0712,-0.0655,-0.0512,-0.0298,-0.0199,-0.0083,-0.0051,0.0109,0.0084,0.0132,0.0257,0.0257,0.0205,0,0,0,0,0,0,-0.0626,-0.0689,-0.072,-0.0789,-0.083,-0.0875,-0.0878,-0.0843,-0.0781,-0.0709,-0.0588,-0.0503,-0.0294,-0.0361,-0.0085,-0.0049,-0.0008,0.0192,0.0194,0.0258,0.0257,0.0257,0.0203,0,0,0,0,0]}]]